Weather in Ozerny

Russia / Komi Republic     65°05′21″N   57°09′48″E
temp.,
°C
wind,
m/s
gust,
m/s
humid.,
%
clouds,
%
prec.,
mm/h
press.,
hPa
HPBL,
m
28 february, sun
sun2800:00−22sse378896 0.0 1015177
03:00−23sse379098 0.0 1015153
06:00−22sse3888100 0.0 1014227
09:00−20s3887100 0.0 1015283
12:00−17s488895 0.0 1014371
15:00−16s489194 0.0 1015379
18:00−16s3895100 0.1 1014336
21:00−16s3895100 0.4 1014296
1 march, mon
mon100:00−16s389496 0.1 1014295
03:00−16s4109498 0.3 1013365
06:00−17s51193100 0.2 1010418
09:00−16s61392100 0.4 1008437
12:00−14s71492100 0.3 1004512
15:00−12s81693100 0.8 1000662
18:00−11ssw71492100 1.3 997885
21:00−10s61293100 2.2 996745
2 march, tue
tue200:00−10s61293100 1.1 994678
03:00−11s51292100 1.5 994572
06:00−11sse51192100 0.2 992550
09:00−11sse51094100 0.7 992549
12:00−10sse4893100 0.6 991547
15:00−10sse4892100 0.9 991569
18:00−11sse3894100 0.1 991392
21:00−11sse3795100 0.3 991333
3 march, wed
wed300:00−11se2696100 0.3 990252
03:00−11se2596100 0.9 991218
06:00−12sse1297100 0.6 99187
09:00−10s1295100 1.3 991208
12:00−8ssw1294100 0.8 991294
15:00−7ssw1296100 1.6 992211
18:00−9w2696100 0.8 992272
21:00−10sw2296100 1.2 99260
4 march, thu
thu400:00−12sw2297100 0.1 99140
03:00−15ssw229898 0.2 99221
06:00−15s229798 0.2 99253
09:00−12s249594 0.3 992261
12:00−9sse2493100 0.1 992391
15:00−9sse2494100 0.1 992344
18:00−13sse229688 0.0 99220
21:00−12se229693 0.1 99328